Location: Bethune
(34.4150°N, 80.3490°W)
Time: 07:04:35
(UTC-04:00)

ISS - Visible Passes

Search period start: 26 September 2017 00:00
Search period end: 06 October 2017 00:00
Orbit: 401 x 407 km, 51.6° (Epoch: 26 September)

Date Brightness Start Highest point End Pass type
(mag) Time Alt. Az. Time Alt. Az. Time Alt. Az.
26 Sep -1.9 20:35:35 10° W 20:38:26 27° NW 20:40:34 15° NNE visible
27 Sep -3.1 19:42:49 10° WSW 19:46:00 54° NW 19:49:13 10° NE visible
28 Sep -1.0 20:28:36 10° WNW 20:30:24 14° NNW 20:32:13 10° N visible
29 Sep -1.6 19:35:10 10° W 19:37:49 23° NW 19:40:29 10° NNE visible
